Time,TemperatureF,DewpointF,PressureIn,WindDirection,WindDirectionDegrees,WindSpeedMPH,WindSpeedGustMPH,Humidity,HourlyPrecipIn,Conditions,Clouds,dailyrainin,SoftwareType,DateUTC
2013-01-18 00:03:00,39.0,-99.9,30.04,NW,323,6.0,9.0,-999,-99.99,,,-99.99,,2013-01-18 00:03:00,
2013-01-18 00:13:00,39.0,-99.9,30.03,North,350,6.0,12.0,-999,-99.99,,,-99.99,,2013-01-18 00:13:00,
2013-01-18 00:23:00,39.0,-99.9,30.04,NNW,348,8.0,12.0,-999,-99.99,,,-99.99,,2013-01-18 00:23:00,
2013-01-18 00:33:00,39.0,-99.9,30.04,NNW,348,8.0,12.0,-999,-99.99,,,-99.99,,2013-01-18 00:33:00,
2013-01-18 00:43:00,38.0,-99.9,30.05,NW,317,11.0,13.0,-999,-99.99,,,-99.99,,2013-01-18 00:43:00,
2013-01-18 00:53:00,38.0,-99.9,30.04,NNW,335,5.0,12.0,-999,-99.99,,,-99.99,,2013-01-18 00:53:00,
2013-01-18 01:03:00,38.0,-99.9,30.04,NNW,327,6.0,10.0,-999,-99.99,,,-99.99,,2013-01-18 01:03:00,
2013-01-18 01:13:00,38.0,-99.9,30.05,NNW,343,9.0,15.0,-999,-99.99,,,-99.99,,2013-01-18 01:13:00,
2013-01-18 01:23:00,38.0,-99.9,30.05,North,349,9.0,14.0,-999,-99.99,,,-99.99,,2013-01-18 01:23:00,
2013-01-18 01:33:00,38.0,-99.9,30.05,NNW,340,6.0,13.0,-999,-99.99,,,-99.99,,2013-01-18 01:33:00,
2013-01-18 01:43:00,37.0,-99.9,30.03,North,350,8.0,13.0,-999,-99.99,,,-99.99,,2013-01-18 01:43:00,
2013-01-18 01:53:00,37.0,-99.9,30.04,NNW,348,8.0,11.0,-999,-99.99,,,-99.99,,2013-01-18 01:53:00,
2013-01-18 02:03:00,37.0,-99.9,30.03,NNW,338,8.0,11.0,-999,-99.99,,,-99.99,,2013-01-18 02:03:00,
2013-01-18 02:12:00,37.0,-99.9,30.04,North,5,6.0,10.0,-999,-99.99,,,-99.99,,2013-01-18 02:12:00,
2013-01-18 02:23:00,37.0,-99.9,30.04,North,9,9.0,15.0,-999,-99.99,,,-99.99,,2013-01-18 02:23:00,
2013-01-18 02:33:00,36.0,-99.9,30.04,North,355,10.0,14.0,-999,-99.99,,,-99.99,,2013-01-18 02:33:00,
2013-01-18 02:43:00,36.0,-99.9,30.04,North,354,8.0,15.0,-999,-99.99,,,-99.99,,2013-01-18 02:43:00,
2013-01-18 02:53:00,36.0,-99.9,30.04,North,6,10.0,14.0,-999,-99.99,,,-99.99,,2013-01-18 02:53:00,
2013-01-18 03:03:00,36.0,-99.9,30.04,North,2,11.0,16.0,-999,-99.99,,,-99.99,,2013-01-18 03:03:00,
2013-01-18 03:13:00,36.0,-99.9,30.04,North,1,12.0,16.0,-999,-99.99,,,-99.99,,2013-01-18 03:13:00,
2013-01-18 03:23:00,35.0,-99.9,30.03,North,5,13.0,17.0,-999,-99.99,,,-99.99,,2013-01-18 03:23:00,
2013-01-18 03:33:00,35.0,-99.9,30.03,North,5,8.0,12.0,-999,-99.99,,,-99.99,,2013-01-18 03:33:00,
2013-01-18 03:43:00,35.0,-99.9,30.05,North,3,9.0,11.0,-999,-99.99,,,-99.99,,2013-01-18 03:43:00,
2013-01-18 03:53:00,35.0,-99.9,30.05,North,355,9.0,12.0,-999,-99.99,,,-99.99,,2013-01-18 03:53:00,
2013-01-18 04:03:00,35.0,-99.9,30.04,North,1,10.0,14.0,-999,-99.99,,,-99.99,,2013-01-18 04:03:00,
2013-01-18 04:12:00,35.0,-99.9,30.03,North,2,7.0,13.0,-999,-99.99,,,-99.99,,2013-01-18 04:12:00,
2013-01-18 04:22:00,35.0,-99.9,30.01,NNE,27,9.0,14.0,-999,-99.99,,,-99.99,,2013-01-18 04:22:00,
2013-01-18 04:33:00,34.0,-99.9,30.01,NNE,28,13.0,17.0,-999,-99.99,,,-99.99,,2013-01-18 04:33:00,
2013-01-18 04:43:00,34.0,-99.9,29.98,NNE,27,13.0,17.0,-999,-99.99,,,-99.99,,2013-01-18 04:43:00,
2013-01-18 04:53:00,34.0,-99.9,30.01,NE,36,8.0,11.0,-999,-99.99,,,-99.99,,2013-01-18 04:53:00,
2013-01-18 05:04:00,34.0,-99.9,30.01,NNE,27,5.0,10.0,-999,-99.99,,,-99.99,,2013-01-18 05:04:00,
2013-01-18 05:12:00,34.0,-99.9,30.02,NNE,19,6.0,12.0,-999,-99.99,,,-99.99,,2013-01-18 05:12:00,
2013-01-18 05:22:00,34.0,-99.9,30.01,NNE,24,7.0,11.0,-999,-99.99,,,-99.99,,2013-01-18 05:22:00,
2013-01-18 05:33:00,33.0,-99.9,30.04,NNE,22,9.0,15.0,-999,-99.99,,,-99.99,,2013-01-18 05:33:00,
2013-01-18 05:43:00,33.0,-99.9,30.04,NNE,30,13.0,16.0,-999,-99.99,,,-99.99,,2013-01-18 05:43:00,
2013-01-18 05:53:00,33.0,-99.9,30.02,NNE,12,7.0,14.0,-999,-99.99,,,-99.99,,2013-01-18 05:53:00,
2013-01-18 06:03:00,33.0,-99.9,30.01,NNE,21,11.0,15.0,-999,-99.99,,,-99.99,,2013-01-18 06:03:00,
2013-01-18 06:12:00,33.0,-99.9,30.02,NNE,13,10.0,16.0,-999,-99.99,,,-99.99,,2013-01-18 06:12:00,
2013-01-18 06:23:00,33.0,-99.9,30.01,NNE,28,10.0,17.0,-999,-99.99,,,-99.99,,2013-01-18 06:23:00,
2013-01-18 06:33:00,32.0,-99.9,30.00,NNE,26,11.0,19.0,-999,-99.99,,,-99.99,,2013-01-18 06:33:00,
2013-01-18 06:43:00,32.0,-99.9,30.00,NNE,29,11.0,18.0,-999,-99.99,,,-99.99,,2013-01-18 06:43:00,
2013-01-18 06:53:00,-999.0,-99.9,30.00,NNE,32,13.0,18.0,-999,-99.99,,,-99.99,,2013-01-18 06:53:00,
2013-01-18 07:02:00,-999.0,-99.9,30.01,NE,38,13.0,20.0,-999,-99.99,,,-99.99,,2013-01-18 07:02:00,
2013-01-18 07:12:00,31.0,-99.9,30.02,NNE,24,17.0,21.0,-999,-99.99,,,-99.99,,2013-01-18 07:12:00,
2013-01-18 07:22:00,-999.0,-99.9,30.02,NNE,30,13.0,19.0,-999,-99.99,,,-99.99,,2013-01-18 07:22:00,
2013-01-18 07:33:00,-999.0,-99.9,30.02,NNE,26,15.0,21.0,-999,-99.99,,,-99.99,,2013-01-18 07:33:00,
2013-01-18 07:43:00,31.0,-99.9,30.05,NNE,33,11.0,16.0,-999,-99.99,,,-99.99,,2013-01-18 07:43:00,
2013-01-18 07:52:00,-999.0,-99.9,30.04,NNE,32,8.0,13.0,-999,-99.99,,,-99.99,,2013-01-18 07:52:00,
2013-01-18 08:02:00,31.0,-99.9,30.06,NNE,29,7.0,17.0,-999,-99.99,,,-99.99,,2013-01-18 08:02:00,
2013-01-18 08:12:00,-999.0,-99.9,30.05,NNE,26,8.0,13.0,-999,-99.99,,,-99.99,,2013-01-18 08:12:00,
2013-01-18 08:22:00,-999.0,-99.9,30.04,NE,39,13.0,19.0,-999,-99.99,,,-99.99,,2013-01-18 08:22:00,
2013-01-18 08:33:00,-999.0,-99.9,30.02,NNE,13,17.0,22.0,-999,-99.99,,,-99.99,,2013-01-18 08:33:00,
2013-01-18 08:43:00,30.0,-99.9,30.03,NNE,26,11.0,18.0,-999,-99.99,,,-99.99,,2013-01-18 08:43:00,
2013-01-18 08:53:00,-999.0,-99.9,30.04,NE,44,11.0,15.0,-999,-99.99,,,-99.99,,2013-01-18 08:53:00,
2013-01-18 09:03:00,-999.0,-99.9,30.06,NNE,32,9.0,14.0,-999,-99.99,,,-99.99,,2013-01-18 09:03:00,
2013-01-18 09:12:00,30.0,-99.9,30.05,NE,44,11.0,13.0,-999,-99.99,,,-99.99,,2013-01-18 09:12:00,
2013-01-18 09:22:00,-999.0,-99.9,30.04,NE,37,15.0,18.0,-999,-99.99,,,-99.99,,2013-01-18 09:22:00,
2013-01-18 09:33:00,30.0,-99.9,30.04,NNE,25,11.0,19.0,-999,-99.99,,,-99.99,,2013-01-18 09:33:00,
2013-01-18 09:43:00,-999.0,-99.9,30.04,NNE,25,16.0,20.0,-999,-99.99,,,-99.99,,2013-01-18 09:43:00,
2013-01-18 09:53:00,-999.0,-99.9,30.06,NNE,23,10.0,17.0,-999,-99.99,,,-99.99,,2013-01-18 09:53:00,
2013-01-18 10:03:00,-999.0,-99.9,30.06,NNE,18,9.0,20.0,-999,-99.99,,,-99.99,,2013-01-18 10:03:00,
2013-01-18 10:12:00,-999.0,-99.9,30.06,NNE,23,14.0,20.0,-999,-99.99,,,-99.99,,2013-01-18 10:12:00,
2013-01-18 10:22:00,-999.0,-99.9,30.06,NNE,18,15.0,21.0,-999,-99.99,,,-99.99,,2013-01-18 10:22:00,
2013-01-18 10:33:00,-999.0,-99.9,30.07,NNE,26,9.0,21.0,-999,-99.99,,,-99.99,,2013-01-18 10:33:00,
2013-01-18 10:43:00,28.0,-99.9,30.07,NNE,32,17.0,21.0,-999,-99.99,,,-99.99,,2013-01-18 10:43:00,
2013-01-18 10:53:00,-999.0,-99.9,30.09,NNE,18,12.0,21.0,-999,-99.99,,,-99.99,,2013-01-18 10:53:00,
2013-01-18 11:03:00,28.0,-99.9,30.10,NNE,21,11.0,23.0,-999,-99.99,,,-99.99,,2013-01-18 11:03:00,
2013-01-18 11:12:00,-999.0,-99.9,30.12,NNE,13,17.0,23.0,-999,-99.99,,,-99.99,,2013-01-18 11:12:00,
2013-01-18 11:23:00,-999.0,-99.9,30.13,NNE,23,12.0,20.0,-999,-99.99,,,-99.99,,2013-01-18 11:23:00,
2013-01-18 11:33:00,-999.0,-99.9,30.15,NE,35,16.0,20.0,-999,-99.99,,,-99.99,,2013-01-18 11:33:00,
2013-01-18 11:43:00,-999.0,-99.9,30.15,NNE,30,17.0,22.0,-999,-99.99,,,-99.99,,2013-01-18 11:43:00,
2013-01-18 11:53:00,-999.0,-99.9,30.16,NNE,28,13.0,23.0,-999,-99.99,,,-99.99,,2013-01-18 11:53:00,
2013-01-18 12:03:00,-999.0,-99.9,30.17,NNE,31,9.0,18.0,-999,-99.99,,,-99.99,,2013-01-18 12:03:00,
2013-01-18 12:12:00,25.0,-99.9,30.17,NNE,32,12.0,19.0,-999,-99.99,,,-99.99,,2013-01-18 12:12:00,
2013-01-18 12:23:00,-999.0,-99.9,30.18,NNE,25,9.0,16.0,-999,-99.99,,,-99.99,,2013-01-18 12:23:00,
2013-01-18 12:33:00,24.0,-99.9,30.18,NNE,17,15.0,20.0,-999,-99.99,,,-99.99,,2013-01-18 12:33:00,
2013-01-18 12:43:00,-999.0,-99.9,30.20,NNE,19,13.0,18.0,-999,-99.99,,,-99.99,,2013-01-18 12:43:00,
2013-01-18 12:53:00,-999.0,-99.9,30.20,NNE,27,15.0,18.0,-999,-99.99,,,-99.99,,2013-01-18 12:53:00,
2013-01-18 13:03:00,24.0,-99.9,30.21,North,10,13.0,18.0,-999,-99.99,,,-99.99,,2013-01-18 13:03:00,
2013-01-18 13:12:00,-999.0,-99.9,30.22,NNE,17,13.0,19.0,-999,-99.99,,,-99.99,,2013-01-18 13:12:00,
2013-01-18 13:23:00,-999.0,-99.9,30.24,North,5,11.0,18.0,-999,-99.99,,,-99.99,,2013-01-18 13:23:00,
2013-01-18 13:34:00,-999.0,-99.9,30.25,North,10,11.0,21.0,-999,-99.99,,,-99.99,,2013-01-18 13:34:00,
2013-01-18 13:43:00,23.0,-99.9,30.25,North,1,15.0,22.0,-999,-99.99,,,-99.99,,2013-01-18 13:43:00,
2013-01-18 13:53:00,-999.0,-99.9,30.27,NNE,20,14.0,20.0,-999,-99.99,,,-99.99,,2013-01-18 13:53:00,
2013-01-18 14:03:00,23.0,-99.9,30.27,NNE,26,15.0,22.0,-999,-99.99,,,-99.99,,2013-01-18 14:03:00,
2013-01-18 14:13:00,-999.0,-99.9,30.28,NNE,25,15.0,19.0,-999,-99.99,,,-99.99,,2013-01-18 14:13:00,
2013-01-18 14:23:00,-999.0,-99.9,30.29,North,7,8.0,18.0,-999,-99.99,,,-99.99,,2013-01-18 14:23:00,
2013-01-18 14:34:00,-999.0,-99.9,30.30,NNE,28,11.0,20.0,-999,-99.99,,,-99.99,,2013-01-18 14:34:00,
2013-01-18 14:43:00,24.0,-99.9,30.30,NNE,24,11.0,18.0,-999,-99.99,,,-99.99,,2013-01-18 14:43:00,
2013-01-18 14:53:00,-999.0,-99.9,30.30,NNE,23,11.0,18.0,-999,-99.99,,,-99.99,,2013-01-18 14:53:00,
2013-01-18 15:03:00,-999.0,-99.9,30.31,North,351,14.0,18.0,-999,-99.99,,,-99.99,,2013-01-18 15:03:00,
2013-01-18 15:13:00,23.0,-99.9,30.31,North,3,12.0,20.0,-999,-99.99,,,-99.99,,2013-01-18 15:13:00,
2013-01-18 15:23:00,-999.0,-99.9,30.32,NNE,16,13.0,20.0,-999,-99.99,,,-99.99,,2013-01-18 15:23:00,
2013-01-18 15:34:00,23.0,-99.9,30.32,NNE,19,14.0,21.0,-999,-99.99,,,-99.99,,2013-01-18 15:34:00,
2013-01-18 15:44:00,-999.0,-99.9,30.32,NNE,18,16.0,22.0,-999,-99.99,,,-99.99,,2013-01-18 15:44:00,
2013-01-18 15:54:00,-999.0,-99.9,30.32,North,359,13.0,25.0,-999,-99.99,,,-99.99,,2013-01-18 15:54:00,
2013-01-18 16:03:00,-999.0,-99.9,30.33,NNW,341,17.0,21.0,-999,-99.99,,,-99.99,,2013-01-18 16:03:00,
2013-01-18 16:13:00,24.0,-99.9,30.33,NNE,13,14.0,20.0,-999,-99.99,,,-99.99,,2013-01-18 16:13:00,
2013-01-18 16:23:00,-999.0,-99.9,30.33,North,354,19.0,23.0,-999,-99.99,,,-99.99,,2013-01-18 16:23:00,
2013-01-18 16:33:00,-999.0,-99.9,30.33,NNW,347,17.0,28.0,-999,-99.99,,,-99.99,,2013-01-18 16:33:00,
2013-01-18 16:43:00,23.0,-99.9,30.32,North,355,16.0,26.0,-999,-99.99,,,-99.99,,2013-01-18 16:43:00,
2013-01-18 16:53:00,-999.0,-99.9,30.32,North,1,16.0,24.0,-999,-99.99,,,-99.99,,2013-01-18 16:53:00,
2013-01-18 17:03:00,24.0,-99.9,30.33,North,355,15.0,24.0,-999,-99.99,,,-99.99,,2013-01-18 17:03:00,
2013-01-18 17:13:00,-999.0,-99.9,30.32,NNW,345,17.0,30.0,-999,-99.99,,,-99.99,,2013-01-18 17:13:00,
2013-01-18 17:23:00,-999.0,-99.9,30.32,North,349,20.0,28.0,-999,-99.99,,,-99.99,,2013-01-18 17:23:00,
2013-01-18 17:34:00,-999.0,-99.9,30.33,North,8,17.0,26.0,-999,-99.99,,,-99.99,,2013-01-18 17:34:00,
2013-01-18 17:43:00,-999.0,-99.9,30.33,North,1,21.0,28.0,-999,-99.99,,,-99.99,,2013-01-18 17:43:00,
2013-01-18 17:53:00,-999.0,-99.9,30.33,North,354,17.0,24.0,-999,-99.99,,,-99.99,,2013-01-18 17:53:00,
2013-01-18 18:03:00,-999.0,-99.9,30.33,North,352,12.0,20.0,-999,-99.99,,,-99.99,,2013-01-18 18:03:00,
2013-01-18 18:13:00,25.0,-99.9,30.34,NNW,330,15.0,24.0,-999,-99.99,,,-99.99,,2013-01-18 18:13:00,
2013-01-18 18:24:00,-999.0,-99.9,30.34,North,349,13.0,25.0,-999,-99.99,,,-99.99,,2013-01-18 18:24:00,
2013-01-18 18:34:00,25.0,-99.9,30.34,North,349,10.0,25.0,-999,-99.99,,,-99.99,,2013-01-18 18:34:00,
2013-01-18 18:44:00,-999.0,-99.9,30.35,NNW,347,17.0,25.0,-999,-99.99,,,-99.99,,2013-01-18 18:44:00,
2013-01-18 18:53:00,-999.0,-99.9,30.34,North,1,19.0,23.0,-999,-99.99,,,-99.99,,2013-01-18 18:53:00,
2013-01-18 19:03:00,-999.0,-99.9,30.34,North,357,8.0,21.0,-999,-99.99,,,-99.99,,2013-01-18 19:03:00,
2013-01-18 19:13:00,27.0,-99.9,30.34,North,2,12.0,19.0,-999,-99.99,,,-99.99,,2013-01-18 19:13:00,
2013-01-18 19:23:00,-999.0,-99.9,30.35,NW,315,8.0,17.0,-999,-99.99,,,-99.99,,2013-01-18 19:23:00,
2013-01-18 19:33:00,-999.0,-99.9,30.35,North,352,17.0,25.0,-999,-99.99,,,-99.99,,2013-01-18 19:33:00,
2013-01-18 19:43:00,26.0,-99.9,30.34,North,351,18.0,24.0,-999,-99.99,,,-99.99,,2013-01-18 19:43:00,
2013-01-18 19:53:00,-999.0,-99.9,30.35,North,349,17.0,28.0,-999,-99.99,,,-99.99,,2013-01-18 19:53:00,
2013-01-18 20:03:00,27.0,-99.9,30.35,North,4,14.0,24.0,-999,-99.99,,,-99.99,,2013-01-18 20:03:00,
2013-01-18 20:13:00,-999.0,-99.9,30.35,North,350,13.0,20.0,-999,-99.99,,,-99.99,,2013-01-18 20:13:00,
2013-01-18 20:23:00,-999.0,-99.9,30.37,North,3,16.0,22.0,-999,-99.99,,,-99.99,,2013-01-18 20:23:00,
2013-01-18 20:33:00,-999.0,-99.9,30.37,NNW,347,16.0,24.0,-999,-99.99,,,-99.99,,2013-01-18 20:33:00,
2013-01-18 20:43:00,26.0,-99.9,30.37,North,354,15.0,21.0,-999,-99.99,,,-99.99,,2013-01-18 20:43:00,
2013-01-18 20:53:00,-999.0,-99.9,30.37,North,356,14.0,19.0,-999,-99.99,,,-99.99,,2013-01-18 20:53:00,
2013-01-18 21:03:00,-999.0,-99.9,30.37,North,351,13.0,18.0,-999,-99.99,,,-99.99,,2013-01-18 21:03:00,
2013-01-18 21:13:00,26.0,-99.9,30.37,North,354,9.0,18.0,-999,-99.99,,,-99.99,,2013-01-18 21:13:00,
2013-01-18 21:23:00,-999.0,-99.9,30.37,NNW,327,17.0,21.0,-999,-99.99,,,-99.99,,2013-01-18 21:23:00,
2013-01-18 21:33:00,26.0,-99.9,30.38,NW,312,14.0,22.0,-999,-99.99,,,-99.99,,2013-01-18 21:33:00,
2013-01-18 21:43:00,-999.0,-99.9,30.38,NW,321,12.0,21.0,-999,-99.99,,,-99.99,,2013-01-18 21:43:00,
2013-01-18 21:53:00,-999.0,-99.9,30.38,NW,323,11.0,14.0,-999,-99.99,,,-99.99,,2013-01-18 21:53:00,
2013-01-18 22:03:00,-999.0,-99.9,30.39,NW,311,8.0,14.0,-999,-99.99,,,-99.99,,2013-01-18 22:03:00,
2013-01-18 22:12:00,25.0,-99.9,30.39,NW,324,9.0,16.0,-999,-99.99,,,-99.99,,2013-01-18 22:12:00,
2013-01-18 22:23:00,-999.0,-99.9,30.40,NNW,331,11.0,17.0,-999,-99.99,,,-99.99,,2013-01-18 22:23:00,
2013-01-18 22:33:00,25.0,-99.9,30.40,NW,323,10.0,16.0,-999,-99.99,,,-99.99,,2013-01-18 22:33:00,
2013-01-18 22:43:00,25.0,-99.9,30.40,NW,323,10.0,16.0,-999,-99.99,,,-99.99,,2013-01-18 22:43:00,
2013-01-18 22:53:00,-999.0,-99.9,30.41,NW,321,6.0,12.0,-999,-99.99,,,-99.99,,2013-01-18 22:53:00,
2013-01-18 23:03:00,25.0,-99.9,30.41,NW,319,9.0,11.0,-999,-99.99,,,-99.99,,2013-01-18 23:03:00,
2013-01-18 23:12:00,-999.0,-99.9,30.41,NW,317,8.0,12.0,-999,-99.99,,,-99.99,,2013-01-18 23:12:00,
2013-01-18 23:23:00,-999.0,-99.9,30.42,NNW,328,8.0,12.0,-999,-99.99,,,-99.99,,2013-01-18 23:23:00,
2013-01-18 23:33:00,-999.0,-99.9,30.42,NW,324,6.0,9.0,-999,-99.99,,,-99.99,,2013-01-18 23:33:00,
2013-01-18 23:43:00,24.0,-99.9,30.42,NW,308,5.0,9.0,-999,-99.99,,,-99.99,,2013-01-18 23:43:00,
2013-01-18 23:53:00,-999.0,-99.9,30.43,West,280,5.0,8.0,-999,-99.99,,,-99.99,,2013-01-18 23:53:00,